[[{"header":{"parameterUnit":"m.s-1","parameterCategory":1,"la1":30.2991,"la2":30.254,"lo1":-89.0895,"lo2":-89.0444,"dy":0.0017,"dx":0.0017,"nx":28,"ny":28,"refTime":"2026-01-11T09:00:00:Z","depth":0,"parameterNumber":2,"parameterNumberName":"U-component_of_WINDS"},"data":[0,0,0,0,0,0,0,0,0,0,0,0,0,0,0,0,0,0,0,0,0,0,0,0,0,0,0,0,0,0,0,0,0,0,0,0,0,0,0,0,0,0,0,0,0,0,0,0,0,0,0,0,0,0,0,0,0,0,-1.9743,-1.9744,0,-1.9842,-1.9843,-1.9844,-1.9807,-1.9804,-1.9802,-1.98,-1.9902,-1.9907,-1.9912,0,0,0,0,0,0,0,0,0,0,0,0,0,-1.9521,-1.9525,-1.9743,-1.9744,-1.9745,-1.9842,-1.9843,-1.9845,-1.9807,-1.9804,-1.9802,-1.9799,-1.9901,-1.9906,-1.9912,0,0,0,0,0,0,0,0,0,0,0,0,0,-1.9618,-1.9526,-1.9743,-1.9738,-1.9739,-1.9842,-1.9843,-1.9845,-1.9808,-1.9804,-1.9801,-1.9798,-1.9899,-1.9906,-1.9913,-2.0026,0,0,-1.9935,-1.9938,0,0,0,0,0,0,0,0,-1.9613,-1.9626,-1.9738,-1.9739,-1.974,-1.9809,-1.9802,-1.9906,-1.9809,-1.9782,-1.98,-1.9796,-1.9874,-1.9883,-1.9909,-2.0031,-2.0035,-1.9936,-1.994,-1.9943,-1.9945,0,0,0,0,0,0,0,-1.9606,-1.9622,-1.9782,-1.9739,-1.9741,-1.9731,-1.9741,-1.9822,-1.9846,-1.9784,-1.9781,-1.9793,-1.9874,-1.9902,-1.9911,-2.0037,-1.9935,-1.9942,-1.9946,-1.9949,-2.0255,-2.0259,0,0,0,0,0,0,-1.9599,-1.9617,-1.9779,-1.9785,-1.9667,-1.9738,-1.9749,-1.979,-1.9845,-1.985,-1.9796,-1.9791,-1.9891,-1.9903,-1.9915,-2.0051,-1.9943,-1.995,-1.9954,-2.0252,-2.0256,-2.026,0,0,0,0,0,0,-1.9594,-1.9614,-1.9775,-1.97,-1.972,-1.9745,-1.9791,-1.9794,-1.9822,-1.9854,-1.9858,-1.9821,-1.9889,-1.9904,-1.9998,-2.0054,-1.9953,-1.996,-2.0247,-2.0253,-2.0258,-2.0324,0,0,0,0,0,0,-1.9588,-1.9612,-1.9656,-1.9702,-1.9724,-1.9858,-1.9795,-1.9798,-1.9835,-1.9829,-1.9878,-1.9883,-1.9888,-1.9988,-2.0006,-2.0062,-1.9966,-2.0242,-2.025,-2.0256,-2.0317,-2.0331,-2.0344,0,0,0,0,0,-1.958,-1.9671,-1.9658,-1.9678,-1.9779,-1.9861,-1.9874,-1.9877,-1.9839,-1.9883,-1.9903,-1.9882,-2.0044,-1.9998,-2.0017,-2.0077,-2.0239,-2.0248,-2.0256,-2.0311,-2.0329,-2.0343,0,0,0,0,0,0,-1.9632,-1.9677,-1.9664,-1.9772,-1.9813,-1.9855,-1.991,-1.9895,-1.9948,-1.9941,-1.9942,-1.9954,-2.0051,-2.0073,-2.002,-2.0189,-2.0136,-2.0149,-2.0171,-2.0188,-2.0201,-2.0194,-1.9972,0,0,0,0,0,-1.9656,-1.9719,-1.9754,-1.9846,-1.9867,-1.9885,-1.9921,-1.9919,-1.9962,-1.998,-2.0007,-2.0049,-2.0109,-2.015,-2.0207,-2.0319,-2.0329,-2.037,-2.0383,-2.0393,-2.0405,-2.0466,-2.0484,-2.0288,-2.0288,-2.0288,0,0,-1.9706,-1.9738,-1.9778,-1.9857,-1.9889,-1.9954,-1.99,-1.9971,-2.0019,-1.999,-2.0081,-2.0102,-2.0149,-2.0253,-2.03,-2.0275,-2.0461,-2.0404,-2.0413,-2.0419,-2.0477,-2.0495,-2.0512,-2.0294,-2.0293,-2.0292,0,0,-1.9831,-1.9862,-1.9941,-1.9974,-2.0022,-2.0033,-2.0052,-2.0096,-2.0109,-2.02,-2.0179,-2.0236,-2.034,-2.0374,-2.0406,-2.0541,-2.0523,-2.056,-2.0629,-2.0689,-2.0704,-2.0718,-2.0767,-2.0784,-2.0571,-2.0571,-2.0571,0,-1.9888,-1.9985,-1.9984,-2.0057,-2.0093,-2.0068,-2.0149,-2.018,-2.0245,-2.027,-2.024,-2.037,-2.04,-2.0511,-2.0544,-2.0569,-2.0591,-2.0555,-2.0702,-2.0716,-2.0728,-2.0775,-2.0794,-2.0575,-2.0575,-2.0574,-2.0574,0,-2.0052,-2.012,-2.0178,-2.0241,-2.0283,-2.0359,-2.037,-2.0412,-2.0406,-2.042,-2.0512,-2.0547,-2.0611,-2.0636,-2.0632,-2.0747,-2.0729,-2.0701,-2.0648,-2.0751,-2.0795,-2.0813,-2.0581,-2.058,-2.0579,-2.0577,0,0,-2.0215,-2.0275,-2.0297,-2.0325,-2.0376,-2.0428,-2.0502,-2.0564,-2.06,-2.0645,-2.0708,-2.0795,-2.0769,-2.0804,-2.0802,-2.0854,-2.096,-2.0819,-2.082,-2.0845,-2.1089,-2.1111,-2.1132,-2.0947,-2.095,-2.0953,-2.1085,0,-2.0345,-2.0477,-2.0478,-2.0599,-2.0661,-2.0637,-2.0702,-2.074,-2.0754,-2.0809,-2.0824,-2.0887,-2.0846,-2.0867,-2.0917,-2.0936,-2.1009,-2.0926,-2.1006,-2.1009,-2.0997,-2.1155,-2.118,-2.1303,-2.1102,-2.1105,-2.1107,0,-2.0515,-2.0565,-2.0692,-2.0733,-2.0759,-2.0817,-2.0874,-2.0926,-2.0968,-2.0974,-2.1013,-2.1003,-2.1078,-2.1021,-2.1125,-2.1069,-2.1101,-2.1115,-2.112,-2.1129,-2.1066,-2.117,-2.1342,-2.1361,-2.1134,-2.1132,-2.113,0,-2.0623,-2.0721,-2.081,-2.0834,-2.0884,-2.0925,-2.0948,-2.0986,-2.1023,-2.1072,-2.1095,-2.1152,-2.1184,-2.1228,-2.1233,-2.1191,-2.1338,-2.1281,-2.1346,-2.1346,-2.138,-2.1378,-2.1561,-2.1398,-2.1398,-2.1397,-2.1397,0,-2.0769,-2.0848,-2.0859,-2.0914,-2.1001,-2.1001,-2.1087,-2.1106,-2.114,-2.1197,-2.1179,-2.1234,-2.1237,-2.1293,-2.1297,-2.1382,-2.1396,-2.1404,-2.1405,-2.1407,-2.1406,-2.1429,-2.1421,-2.1402,-2.1401,-2.14,-2.1399,0,-2.0905,-2.0915,-2.1011,-2.1049,-2.106,-2.1123,-2.1156,-2.1208,-2.1219,-2.1292,-2.1309,-2.1328,-2.1392,-2.1401,-2.1476,-2.1479,-2.1582,-2.1573,-2.1568,-2.1568,-2.1632,-2.1626,-2.1838,-2.1866,-2.1683,-2.1685,-2.1686,0,-2.0999,-2.1059,-2.1103,-2.114,-2.1165,-2.1225,-2.1262,-2.1263,-2.1302,-2.1353,-2.1399,-2.1461,-2.1512,-2.1616,-2.1636,-2.1693,-2.1686,-2.1756,-2.1694,-2.1694,-2.1688,-2.1685,-2.1691,-2.1768,-2.177,-2.1772,-2.1773,0,-2.1164,-2.1165,-2.122,-2.1276,-2.1321,-2.1365,-2.1406,-2.1438,-2.1444,-2.1489,-2.1554,-2.1593,-2.1669,-2.1731,-2.1788,-2.181,-2.1793,-2.1792,-2.181,-2.1814,-2.1809,-2.1814,-2.1602,-2.1788,-2.1786,-2.1785,-2.1785,-2.1784,-2.1282,-2.1334,-2.1374,-2.1434,-2.1465,-2.1504,-2.1555,-2.1572,-2.1627,-2.1689,-2.1685,-2.1758,-2.1796,-2.187,-2.1896,-2.1952,-2.1929,-2.1955,-2.1962,-2.1969,-2.1976,-2.1799,-2.1962,-2.1962,-2.1961,-2.1961,-2.1961,0,-2.1447,-2.1471,-2.1527,-2.1585,-2.1633,-2.1611,-2.1655,-2.1697,-2.1761,-2.1798,-2.1847,-2.1922,-2.1981,-2.2005,-2.2063,-2.2104,-2.2097,-2.2119,-2.2117,-2.2122,-2.1993,-2.1972,-2.2123,-2.2123,-2.2123,-2.2123,-2.2123,-2.2123,-2.1539,-2.1626,-2.1632,-2.1734,-2.1757,-2.1827,-2.1855,-2.189,-2.192,-2.2004,-2.2053,-2.2068,-2.21,-2.216,-2.2213,-2.2219,-2.2241,-2.2267,-2.2269,-2.2148,-2.2132,-2.2116,-2.2096,-2.2272,-2.2272,-2.2394,-2.2395,-2.2396]},{"header":{"parameterUnit":"m.s-1","parameterCategory":1,"la1":30.2991,"la2":30.254,"lo1":-89.0895,"lo2":-89.0444,"dy":0.0017,"dx":0.0017,"nx":28,"ny":28,"refTime":"2026-01-11T09:00:00:Z","depth":0,"parameterNumber":3,"parameterNumberName":"V-component_of_WINDS"},"data":[0,0,0,0,0,0,0,0,0,0,0,0,0,0,0,0,0,0,0,0,0,0,0,0,0,0,0,0,0,0,0,0,0,0,0,0,0,0,0,0,0,0,0,0,0,0,0,0,0,0,0,0,0,0,0,0,0,0,-7.9179,-7.9181,0,-7.9385,-7.9387,-7.9389,-7.9312,-7.9308,-7.9303,-7.9298,-7.9504,-7.9513,-7.9523,0,0,0,0,0,0,0,0,0,0,0,0,0,-7.8713,-7.8722,-7.9179,-7.9181,-7.9184,-7.9384,-7.9387,-7.939,-7.9313,-7.9307,-7.9302,-7.9296,-7.9501,-7.9512,-7.9524,0,0,0,0,0,0,0,0,0,0,0,0,0,-7.8917,-7.8725,-7.9178,-7.917,-7.9171,-7.9384,-7.9387,-7.9391,-7.9314,-7.9307,-7.93,-7.9294,-7.9497,-7.9511,-7.9526,-7.9757,0,0,-7.9571,-7.9577,0,0,0,0,0,0,0,0,-7.8905,-7.8934,-7.9168,-7.9171,-7.9173,-7.9316,-7.9298,-7.9513,-7.9316,-7.926,-7.9298,-7.929,-7.9447,-7.9465,-7.9519,-7.9767,-7.9775,-7.9572,-7.9581,-7.9587,-7.9591,0,0,0,0,0,0,0,-7.8891,-7.8924,-7.926,-7.9172,-7.9175,-7.9154,-7.9175,-7.9338,-7.939,-7.9264,-7.9259,-7.9285,-7.9446,-7.9505,-7.9523,-7.9778,-7.9571,-7.9585,-7.9594,-7.9599,-8.0225,-8.0232,0,0,0,0,0,0,-7.8877,-7.8913,-7.9253,-7.9266,-7.9019,-7.9168,-7.9192,-7.9277,-7.9388,-7.9398,-7.9291,-7.928,-7.9483,-7.9506,-7.953,-7.9808,-7.9587,-7.9601,-7.9609,-8.0217,-8.0227,-8.0235,0,0,0,0,0,0,-7.8867,-7.8908,-7.9245,-7.9089,-7.913,-7.9183,-7.928,-7.9284,-7.9343,-7.9408,-7.9416,-7.9341,-7.9478,-7.9509,-7.9701,-7.9814,-7.9607,-7.9621,-8.0208,-8.022,-8.0231,-8.0366,0,0,0,0,0,0,-7.8854,-7.8905,-7.8995,-7.9091,-7.9139,-7.9415,-7.9287,-7.9294,-7.9369,-7.9358,-7.9458,-7.9467,-7.9475,-7.968,-7.9716,-7.9831,-7.9632,-8.0198,-8.0213,-8.0227,-8.0352,-8.0381,-8.0406,0,0,0,0,0,-7.8838,-7.9024,-7.9,-7.9042,-7.9253,-7.9422,-7.9449,-7.9456,-7.9379,-7.9469,-7.951,-7.9464,-7.9796,-7.97,-7.974,-7.9861,-8.0191,-8.0209,-8.0226,-8.034,-8.0375,-8.0405,0,0,0,0,0,0,-7.8938,-7.9037,-7.9011,-7.9234,-7.9321,-7.9409,-7.9523,-7.9493,-7.9602,-7.9587,-7.9588,-7.9611,-7.9809,-7.9854,-7.9746,-8.009,-7.9981,-8.0008,-8.0054,-8.0089,-8.0115,-8.01,-7.9645,0,0,0,0,0,-7.8987,-7.9118,-7.9196,-7.9385,-7.943,-7.9469,-7.9543,-7.9541,-7.963,-7.9665,-7.9721,-7.9807,-7.993,-8.0012,-8.0129,-8.0357,-8.0377,-8.046,-8.0487,-8.0509,-8.0532,-8.0656,-8.0693,-8.0293,-8.0292,-8.0292,0,0,-7.9087,-7.9157,-7.924,-7.9407,-7.9474,-7.9608,-7.95,-7.9647,-7.9746,-7.9687,-7.9873,-7.9916,-8.0012,-8.0224,-8.0319,-8.0267,-8.0647,-8.0531,-8.0548,-8.056,-8.0677,-8.0715,-8.0749,-8.0304,-8.0302,-8.03,0,0,-7.934,-7.9406,-7.9571,-7.9641,-7.9743,-7.9768,-7.9808,-7.9901,-7.9928,-8.0115,-8.0073,-8.0189,-8.0402,-8.0472,-8.0536,-8.0814,-8.0776,-8.0852,-8.0993,-8.1114,-8.1145,-8.1173,-8.1273,-8.1308,-8.0874,-8.0875,-8.0875,0,-7.9452,-7.9655,-7.9659,-7.981,-7.9884,-7.9838,-8.0004,-8.007,-8.0206,-8.0257,-8.0196,-8.0462,-8.0524,-8.0751,-8.0819,-8.0872,-8.0916,-8.0841,-8.1141,-8.1169,-8.1195,-8.129,-8.1327,-8.0883,-8.0882,-8.0881,-8.0881,0,-7.9787,-7.9928,-8.0048,-8.0182,-8.027,-8.0427,-8.0454,-8.0541,-8.0531,-8.0562,-8.0751,-8.0823,-8.0954,-8.1007,-8.0998,-8.1233,-8.1197,-8.1139,-8.103,-8.1242,-8.1331,-8.1367,-8.0896,-8.0892,-8.089,-8.0888,0,0,-8.011,-8.0244,-8.0288,-8.0348,-8.0458,-8.0566,-8.072,-8.085,-8.0925,-8.1019,-8.1148,-8.1328,-8.1275,-8.1347,-8.1345,-8.1451,-8.1666,-8.1379,-8.1381,-8.143,-8.1929,-8.1973,-8.2015,-8.1641,-8.1648,-8.1654,-8.1921,0,-8.0371,-8.0645,-8.0653,-8.0903,-8.1032,-8.099,-8.1124,-8.1205,-8.1237,-8.135,-8.1384,-8.1513,-8.1433,-8.1476,-8.1578,-8.1619,-8.1767,-8.1599,-8.176,-8.1765,-8.1738,-8.2062,-8.2109,-8.2358,-8.1956,-8.1962,-8.1966,0,-8.0713,-8.0821,-8.1084,-8.1174,-8.1229,-8.135,-8.1469,-8.1578,-8.1668,-8.1684,-8.1764,-8.1747,-8.1902,-8.1787,-8.2001,-8.1887,-8.1953,-8.1982,-8.1992,-8.2008,-8.1879,-8.2086,-8.2438,-8.2475,-8.2021,-8.2016,-8.2012,0,-8.0923,-8.1132,-8.1317,-8.1369,-8.148,-8.1566,-8.1615,-8.1698,-8.1775,-8.1878,-8.1928,-8.2047,-8.2113,-8.2205,-8.2218,-8.2134,-8.2433,-8.2319,-8.2449,-8.2449,-8.2515,-8.2511,-8.2882,-8.2557,-8.2556,-8.2555,-8.2554,0,-8.1215,-8.1377,-8.1413,-8.1526,-8.1707,-8.1713,-8.1891,-8.1933,-8.2007,-8.2127,-8.2096,-8.2208,-8.222,-8.2335,-8.2346,-8.2521,-8.255,-8.2566,-8.2568,-8.257,-8.2568,-8.2614,-8.2597,-8.2565,-8.2563,-8.2561,-8.2559,0,-8.148,-8.151,-8.1708,-8.1797,-8.1823,-8.1952,-8.2026,-8.2134,-8.2162,-8.2314,-8.235,-8.2394,-8.2528,-8.2551,-8.2708,-8.2715,-8.2925,-8.2908,-8.2896,-8.2894,-8.3022,-8.301,-8.3436,-8.3493,-8.313,-8.3133,-8.3136,0,-8.1664,-8.1789,-8.1891,-8.197,-8.2024,-8.2151,-8.223,-8.2241,-8.2324,-8.2435,-8.2529,-8.266,-8.2766,-8.2981,-8.3026,-8.3146,-8.3132,-8.3273,-8.3149,-8.3148,-8.3134,-8.3127,-8.3139,-8.3297,-8.3301,-8.3304,-8.3307,0,-8.1989,-8.1998,-8.2114,-8.2236,-8.2332,-8.2427,-8.2518,-8.2584,-8.2605,-8.27,-8.2838,-8.292,-8.3081,-8.3211,-8.333,-8.3378,-8.3346,-8.3345,-8.3381,-8.3385,-8.3373,-8.3382,-8.2961,-8.3335,-8.3332,-8.333,-8.3329,-8.3328,-8.222,-8.2328,-8.2417,-8.2548,-8.2617,-8.2702,-8.2808,-8.285,-8.2966,-8.3099,-8.3097,-8.3248,-8.3333,-8.3489,-8.3546,-8.3662,-8.3617,-8.3669,-8.3683,-8.3696,-8.3709,-8.3354,-8.3684,-8.3683,-8.3682,-8.3681,-8.3681,0,-8.2543,-8.2598,-8.2718,-8.2847,-8.2949,-8.2911,-8.3009,-8.3096,-8.323,-8.3313,-8.3418,-8.3575,-8.3701,-8.3756,-8.3879,-8.3962,-8.395,-8.3994,-8.3988,-8.4,-8.3742,-8.3699,-8.4001,-8.4001,-8.4001,-8.4001,-8.4001,-8.4001,-8.2723,-8.2905,-8.2924,-8.3139,-8.3192,-8.3342,-8.3401,-8.3479,-8.3545,-8.3723,-8.3828,-8.3864,-8.3935,-8.4063,-8.4176,-8.4188,-8.4235,-8.4286,-8.4292,-8.405,-8.4018,-8.3987,-8.3946,-8.4296,-8.4296,-8.454,-8.4542,-8.4544]}]]